Location: Gro�sch�nbrunn
(49.5760°N, 11.8868°E)
Time: 09:46:49
(UTC+00:00)

N. Korean satellite - Pass Details

Date: 27 November 2020
Orbit: 453 x 502 km, 97.2° (Epoch: 16 January)

Event Time Altitude Azimuth Distance (km) Brightness Sun altitude
Rises 04:19:50 0° 19° (NNE) 2,545 10.4 -22.4°
Reaches altitude 10° 04:22:00 10° 28° (NNE) 1,669 9.5 -22.1°
Maximum altitude 04:25:21 37° 97° (E) 774 8.1 -21.5°
Drops below altitude 10° 04:28:44 10° 167° (SSE) 1,680 9.5 -21.0°
Sets 04:30:55 0° 175° (S) 2,564 10.4 -20.6°
